Location: Mesa Vista Observatory
(35.5777°N, 105.6987°W)
Time: 13:22:54
(UTC-06:00)

Hubble Space Telescope - Pass Details

Date: 27 June 2019
Orbit: 536 x 540 km, 28.5° (Epoch: 15 July)

Event Time Altitude Azimuth Distance (km) Brightness Sun altitude
Rises 21:13:25 0° 239° (WSW) 2,670 4.6 -9.5°
Reaches altitude 10° 21:15:57 10° 226° (SW) 1,780 3.5 -9.9°
Maximum altitude 21:19:22 25° 170° (S) 1,093 1.9 -10.4°
Enters shadow 21:21:45 15° 124° (SE) 1,470 2.3 -10.8°
